• En España
  • Lista de países
  • Para 7 días
  • Temperatura del agua
  • Mapa Satelital
  • El tiempo en el mapa
  • Informadores
  • user-avatar
    Iniciar sesión

    Tiempo cada hora Tibissa

    Hoy, 20 Febrero, Martes

    Tiempo Temperatura Precipitaciones Viento Presión Humedad
    00:00 +7°C° 0 mm 1 mps 681 mmHg 80%
    01:00 +7°C° 0 mm 1 mps 681 mmHg 82%
    02:00 +7°C° 0 mm 1 mps 681 mmHg 83%
    03:00 +7°C° 0 mm 1 mps 681 mmHg 84%
    04:00 +7°C° 0 mm 1 mps 681 mmHg 85%
    05:00 +5°C° 0 mm 2 mps 680 mmHg 86%
    06:00 +5°C° 0 mm 2 mps 680 mmHg 87%
    07:00 +5°C° 0 mm 2 mps 680 mmHg 89%
    08:00 +5°C° 0 mm 2 mps 680 mmHg 79%
    09:00 +5°C° 0 mm 3 mps 680 mmHg 70%
    10:00 +7°C° 0 mm 3 mps 681 mmHg 61%
    11:00 +8°C° 0 mm 3 mps 680 mmHg 54%
    12:00 +9°C° 0 mm 3 mps 680 mmHg 48%
    13:00 +10°C° 0 mm 4 mps 680 mmHg 41%
    14:00 +11°C° 0 mm 4 mps 680 mmHg 39%
    15:00 +10°C° 0 mm 5 mps 679 mmHg 38%
    16:00 +11°C° 0 mm 6 mps 679 mmHg 36%
    17:00 +10°C° 0 mm 5 mps 678 mmHg 41%
    18:00 +9°C° 0 mm 5 mps 678 mmHg 46%
    19:00 +8°C° 0 mm 4 mps 678 mmHg 51%
    20:00 +7°C° 0,2 mm 5 mps 678 mmHg 56%
    21:00 +7°C° 0,2 mm 6 mps 678 mmHg 61%
    22:00 +6°C° 0,2 mm 7 mps 678 mmHg 66%
    23:00 +5°C° 0,1 mm 7 mps 678 mmHg 70%

    Mañana, 21 Febrero, Miércoles

    Tiempo Temperatura Precipitaciones Viento Presión Humedad
    00:00 +5°C° 0,1 mm 6 mps 677 mmHg 74%
    01:00 +6°C° 0,1 mm 5 mps 677 mmHg 78%
    02:00 +6°C° 0 mm 5 mps 677 mmHg 79%
    03:00 +5°C° 0 mm 5 mps 676 mmHg 80%
    04:00 +5°C° 0 mm 5 mps 676 mmHg 80%
    05:00 +5°C° 0,1 mm 4 mps 676 mmHg 81%
    06:00 +5°C° 0,1 mm 4 mps 675 mmHg 81%
    07:00 +5°C° 0,1 mm 4 mps 675 mmHg 82%
    08:00 +5°C° 0,2 mm 4 mps 676 mmHg 79%
    09:00 +6°C° 0,2 mm 5 mps 676 mmHg 76%
    10:00 +7°C° 0,2 mm 5 mps 676 mmHg 73%
    11:00 +7°C° 0,2 mm 4 mps 676 mmHg 68%
    12:00 +8°C° 0,2 mm 4 mps 676 mmHg 62%
    13:00 +9°C° 0,2 mm 3 mps 676 mmHg 57%
    14:00 +9°C° 0,2 mm 3 mps 675 mmHg 58%
    15:00 +9°C° 0,2 mm 3 mps 675 mmHg 59%
    16:00 +9°C° 0,2 mm 3 mps 674 mmHg 59%
    17:00 +8°C° 0,8 mm 3 mps 674 mmHg 64%
    18:00 +6°C° 0,8 mm 4 mps 674 mmHg 68%
    19:00 +5°C° 0,8 mm 4 mps 674 mmHg 73%
    20:00 +5°C° 0,7 mm 4 mps 675 mmHg 72%
    21:00 +4°C° 0,7 mm 4 mps 675 mmHg 72%
    22:00 +4°C° 0,7 mm 4 mps 675 mmHg 72%
    23:00 +4°C° 0 mm 3 mps 675 mmHg 73%

    Pasado mañana, 22 Febrero, Jueves

    Tiempo Temperatura Precipitaciones Viento Presión Humedad
    00:00 +4°C° 0 mm 2 mps 675 mmHg 74%
    01:00 +4°C° 0 mm 2 mps 675 mmHg 75%
    02:00 +5°C° 0 mm 1 mps 674 mmHg 77%
    03:00 +4°C° 0 mm 1 mps 674 mmHg 78%
    04:00 +4°C° 0 mm 1 mps 674 mmHg 80%
    05:00 +4°C° 0 mm 1 mps 674 mmHg 80%
    06:00 +4°C° 0 mm 1 mps 674 mmHg 80%
    07:00 +4°C° 0 mm 1 mps 674 mmHg 80%
    08:00 +3°C° 0,4 mm 2 mps 674 mmHg 77%
    09:00 +4°C° 0,4 mm 2 mps 674 mmHg 74%
    10:00 +5°C° 0,4 mm 2 mps 675 mmHg 72%
    11:00 +4°C° 1,2 mm 2 mps 674 mmHg 74%
    12:00 +4°C° 1,2 mm 2 mps 674 mmHg 76%
    13:00 +4°C° 1,2 mm 2 mps 674 mmHg 78%
    14:00 +4°C° 1,3 mm 2 mps 674 mmHg 81%
    15:00 +4°C° 1,3 mm 2 mps 674 mmHg 84%
    16:00 +4°C° 1,3 mm 2 mps 673 mmHg 87%
    17:00 +3°C° 0,5 mm 2 mps 673 mmHg 88%
    18:00 +3°C° 0,5 mm 2 mps 673 mmHg 89%
    19:00 +3°C° 0,5 mm 2 mps 673 mmHg 90%
    20:00 +2°C° 0,7 mm 3 mps 673 mmHg 92%
    21:00 +2°C° 0,7 mm 3 mps 674 mmHg 93%
    22:00 +2°C° 0,7 mm 3 mps 674 mmHg 95%
    23:00 +2°C° 1,4 mm 3 mps 673 mmHg 95%

    23 Febrero, Viernes

    Tiempo Temperatura Precipitaciones Viento Presión Humedad
    00:00 +2°C° 1,4 mm 3 mps 673 mmHg 95%
    01:00 +2°C° 1,4 mm 3 mps 673 mmHg 95%
    02:00 +1°C° 1,3 mm 3 mps 673 mmHg 95%
    03:00 +1°C° 1,3 mm 3 mps 672 mmHg 95%
    04:00 0°C° 1,3 mm 4 mps 672 mmHg 94%
    05:00 0°C° 0,9 mm 4 mps 672 mmHg 94%
    06:00 0°C° 0,9 mm 4 mps 672 mmHg 94%
    07:00 0°C° 0,9 mm 5 mps 673 mmHg 94%
    08:00 0°C° 0,5 mm 5 mps 673 mmHg 94%
    09:00 0°C° 0,5 mm 5 mps 674 mmHg 93%
    10:00 -1°C° 0,5 mm 6 mps 674 mmHg 93%
    11:00 +1°C° 0,1 mm 6 mps 674 mmHg 91%
    12:00 +1°C° 0,1 mm 6 mps 675 mmHg 90%
    13:00 +2°C° 0,1 mm 6 mps 675 mmHg 88%
    14:00 +2°C° 0 mm 6 mps 675 mmHg 86%
    15:00 +2°C° 0 mm 6 mps 675 mmHg 85%
    16:00 +2°C° 0 mm 6 mps 675 mmHg 84%
    17:00 +2°C° 0 mm 6 mps 675 mmHg 83%
    18:00 +1°C° 0 mm 5 mps 676 mmHg 83%
    19:00 0°C° 0 mm 4 mps 676 mmHg 83%
    20:00 0°C° 0 mm 4 mps 677 mmHg 82%
    21:00 +1°C° 0 mm 3 mps 677 mmHg 82%
    22:00 0°C° 0 mm 3 mps 677 mmHg 81%
    23:00 0°C° 0 mm 3 mps 677 mmHg 79%

    24 Febrero, Sábado

    Tiempo Temperatura Precipitaciones Viento Presión Humedad
    00:00 +1°C° 0 mm 2 mps 677 mmHg 77%
    01:00 +1°C° 0 mm 2 mps 677 mmHg 76%
    02:00 +1°C° 0 mm 2 mps 677 mmHg 75%
    03:00 +1°C° 0 mm 2 mps 677 mmHg 74%
    04:00 +1°C° 0 mm 2 mps 677 mmHg 74%
    05:00 +1°C° 0 mm 2 mps 677 mmHg 72%
    06:00 +2°C° 0 mm 2 mps 677 mmHg 71%
    07:00 +2°C° 0 mm 2 mps 677 mmHg 69%
    08:00 +3°C° 0 mm 2 mps 678 mmHg 68%
    09:00 +5°C° 0 mm 2 mps 678 mmHg 67%
    10:00 +6°C° 0 mm 2 mps 679 mmHg 66%
    11:00 +7°C° 0 mm 3 mps 679 mmHg 63%
    12:00 +7°C° 0 mm 5 mps 678 mmHg 61%
    13:00 +8°C° 0 mm 6 mps 678 mmHg 58%
    14:00 +8°C° 0 mm 6 mps 678 mmHg 56%
    15:00 +9°C° 0 mm 5 mps 678 mmHg 55%
    16:00 +9°C° 0 mm 5 mps 677 mmHg 53%
    17:00 +8°C° 0 mm 5 mps 677 mmHg 55%
    18:00 +7°C° 0 mm 4 mps 677 mmHg 57%
    19:00 +7°C° 0 mm 3 mps 677 mmHg 59%
    20:00 +7°C° 0 mm 3 mps 677 mmHg 60%
    21:00 +7°C° 0 mm 3 mps 677 mmHg 62%
    22:00 +6°C° 0 mm 2 mps 677 mmHg 63%
    23:00 +6°C° 0 mm 2 mps 677 mmHg 63%

    25 Febrero, Domingo

    Tiempo Temperatura Precipitaciones Viento Presión Humedad
    00:00 +6°C° 0 mm 2 mps 676 mmHg 63%
    01:00 +7°C° 0 mm 1 mps 676 mmHg 62%
    02:00 +6°C° 0 mm 1 mps 676 mmHg 62%
    03:00 +6°C° 0 mm 1 mps 676 mmHg 62%
    04:00 +6°C° 0 mm 1 mps 675 mmHg 61%
    05:00 +6°C° 0 mm 1 mps 675 mmHg 62%
    06:00 +5°C° 0 mm 1 mps 676 mmHg 62%
    07:00 +5°C° 0 mm 1 mps 676 mmHg 62%
    08:00 +7°C° 0 mm 1 mps 676 mmHg 60%
    09:00 +8°C° 0 mm 1 mps 677 mmHg 57%
    10:00 +10°C° 0 mm 1 mps 678 mmHg 54%
    11:00 +10°C° 0 mm 2 mps 678 mmHg 52%
    12:00 +11°C° 0 mm 3 mps 678 mmHg 50%
    13:00 +12°C° 0 mm 4 mps 678 mmHg 48%
    14:00 +12°C° 0 mm 4 mps 678 mmHg 48%
    15:00 +12°C° 0 mm 5 mps 678 mmHg 48%
    16:00 +12°C° 0 mm 5 mps 678 mmHg 48%
    17:00 +9°C° 0 mm 5 mps 678 mmHg 56%
    18:00 +8°C° 0 mm 5 mps 679 mmHg 64%
    19:00 +6°C° 0 mm 5 mps 679 mmHg 73%
    20:00 +5°C° 0 mm 4 mps 679 mmHg 76%
    21:00 +5°C° 0 mm 4 mps 679 mmHg 79%
    22:00 +4°C° 0 mm 3 mps 680 mmHg 82%
    23:00 +4°C° 0 mm 2 mps 680 mmHg 82%
    Mostrar más